Ana Sayfa
METAR-TAF:

METAR-TAF

Havaalanları :

Wellsville Municipal Airport (Tarantine Field)

Wellsville, New York, Amerika Birleşik Devletleri

Enlem: 42-06-27N, Boylam: 077-59-04W, yükseklik: 647 m

Güncel hava durumu gözlemi

Rapor saat 19:56 UTC de 41 dakika önce yapıldı.
Rüzgar değişken yönden 4 kt
Sıcaklık 2°C
Nem 60%
Basınç 1025 hPa
Görüş mesafesi: 16.1 km
Açık gökyüzü

METAR: KELZ 241956Z AUTO VRB04KT 10SM CLR 02/M05 A3026 RMK AO2 SLP270 T00221050 $

Saat: 15:37 (20:37 UTC)


TAF: eksik

4.000'den fazla havaalanı için hava durumu gözlemleri ve tahminleri (METAR ve TAF raporları).

Kullanılabilir istasyonlar harita üzerinde sarı ve kırmızı noktalarla gösterilir.

İstasyonun adını görmek için fareyi noktanın üzerinde gezdirin.

Sonrasında hava gözlem ve tahminlerini görmek için tıklayın.

Haritayı değiştirmek için: yaklaştırmak için siyah artı işaretli yeşil düğmeye ve uzaklaştırmak için de eksi işaretli düğmeye hızla tıklayın; bitişik haritalar için yeşil okları kullanın.


METAR-TAF: